Simultaneous Nadir Overpasses (SNOs) Predictions

Prediction of SNOs between FY3D and AQUA Satellite Orbit:

Table of predicted SNOs for the next 14.0 days since TLE Epoch: 10/24/2020
Index Date (FY3D) Time (FY3D) Lat,Lon (FY3D) SZA (FY3D ) Date (AQUA) Time (AQUA) Lat,Lon (AQUA) SZA (AQUA ) Distance(km) Time Diff (sec)
1 10/25/2020 03:16:43 51.87, -14.86 129.91 10/25/2020 03:17:06 51.87, -14.88 129.87 1.66 23
2 10/25/2020 04:05:04 -60.18, 157.31 57.10 10/25/2020 04:04:13 -60.18, 157.30 57.01 0.25 51
3 10/27/2020 19:33:45 49.59, 100.00 132.48 10/27/2020 19:34:14 49.59, 100.01 132.42 0.05 29
4 10/27/2020 20:21:32 -59.86, -87.00 56.02 10/27/2020 20:20:48 -59.86, -87.04 55.93 1.96 44
5 10/30/2020 11:50:34 48.04,-144.74 134.39 10/30/2020 11:51:09 48.06,-144.74 134.30 1.93 35
6 10/30/2020 12:38:22 -58.30, 27.86 53.90 10/30/2020 12:37:44 -58.30, 27.86 53.84 0.21 38
7 11/02/2020 04:06:48 48.45, -28.65 134.77 11/02/2020 04:07:30 48.48, -28.69 134.68 4.18 42
8 11/02/2020 04:55:08 -56.90, 142.91 51.97 11/02/2020 04:54:36 -56.90, 142.92 51.92 0.86 32
9 11/04/2020 20:23:03 48.87, 87.44 135.14 11/04/2020 20:23:52 48.89, 87.35 135.07 7.45 49
10 11/04/2020 21:11:52 -55.66,-101.90 50.22 11/04/2020 21:11:26 -55.67,-101.88 50.18 1.21 26
